This is the latest recevied weather packets stored in our database for station/object GAPWX. If no packets are shown the sender has not sent any weather packets the latest 1 day(s).
| Time | Temp. | Humidity | Pressure | Rain* | Wind** | Luminosity | Snow |
|---|---|---|---|---|---|---|---|
| 1778050757 | 6.67° C | 73% | 1016.9 hPa | 16.76 mm | - | - | - |
| 1778050453 | 6.67° C | 73% | 1016.8 hPa | 16.76 mm | - | - | - |
| 1778050153 | 7.22° C | 73% | 1016.8 hPa | 16.76 mm | - | - | - |
| 1778048947 | 7.22° C | 73% | 1016.7 hPa | 16.76 mm | - | - | - |
| 1778048345 | 7.22° C | 73% | 1016.6 hPa | 16.76 mm | - | - | - |
| 1778046840 | 7.22° C | 73% | 1016.6 hPa | 16.76 mm | - | - | - |
| 1778044729 | 6.67° C | 72% | 1016.3 hPa | 16.76 mm | - | - | - |
| 1778044427 | 6.67° C | 72% | 1016.3 hPa | 16.76 mm | - | - | - |
| 1778043524 | 7.22° C | 72% | 1016.2 hPa | 16.76 mm | - | - | - |
| 1778041113 | 7.22° C | 70% | 1015.9 hPa | 16.76 mm | - | - | - |
| 1778038097 | 8.33° C | 68% | 1015.4 hPa | 16.76 mm | - | - | - |
| 1778037195 | 8.89° C | 67% | 1015.2 hPa | 16.76 mm | - | - | - |
| 1778036292 | 9.44° C | 67% | 1015 hPa | 16.76 mm | - | - | - |
| 1778035993 | 10° C | 66% | 1014.8 hPa | 16.76 mm | - | - | - |
| 1778035386 | 10° C | 65% | 1014.9 hPa | 16 mm | - | - | - |
| 1778033277 | 10.56° C | 64% | 1014.7 hPa | 16 mm | - | - | - |
| 1778032071 | 11.67° C | 63% | 1014.6 hPa | 16 mm | - | - | - |
| 1778031167 | 12.22° C | 62% | 1014.4 hPa | 16 mm | - | - | - |
| 1778029663 | 12.78° C | 61% | 1014.3 hPa | 16 mm | - | - | - |
| 1778028178 | 13.89° C | 61% | 1014.2 hPa | 16 mm | - | - | - |
| 1778026044 | 14.44° C | 60% | 1014 hPa | 16 mm | - | - | - |
| 1778019717 | 14.44° C | 62% | 1013.7 hPa | 16 mm | - | - | - |
| 1778019119 | 14.44° C | 62% | 1013.7 hPa | 16 mm | - | - | - |
| 1778018812 | 14.44° C | 62% | 1013.7 hPa | 16 mm | - | - | - |
| 1778017907 | 14.44° C | 61% | 1013.6 hPa | 16 mm | - | - | - |
* Rain since midnight (hover to see other rain measurements)
** Current wind speed in m/s (hover to see current wind gust speed)